Location: Castillon
(43.0896°N, 0.2156°E)
Time: 04:25:35
(UTC+00:00)

Cosmos 1980 Rocket - Pass Details

Date: 20 October 2021
Orbit: 828 x 851 km, 71.0° (Epoch: 07 December)

Event Time Altitude Azimuth Distance (km) Brightness Sun altitude
Rises 17:54:29 0° 208° (SSW) 3,375 5.8 -9.1°
Reaches altitude 10° 17:56:54 10° 210° (SSW) 2,449 5.1 -9.6°
Maximum altitude 18:02:32 75° 295° (WNW) 875 2.4 -10.6°
Drops below altitude 10° 18:08:14 10° 22° (NNE) 2,479 4.4 -11.7°
Sets 18:10:42 0° 24° (NNE) 3,421 5.1 -12.1°
